Weather History for Russellville, AR

Change the Weather History Date:

Sunday, May 10, 2009

  Actual Average (KHOT) Record (KHOT)
Temperature  
Mean Temperature 62 °F -  
Max Temperature 64 °F 79 °F 90 °F (1987)
Min Temperature 59 °F 53 °F 41 °F (1990)
Degree Days  
Heating Degree Days 4    
Growing Degree Days 12 (Base 50)    
Moisture  
Dew Point 56 °F    
Average Humidity 83    
Maximum Humidity 94    
Minimum Humidity 58    
Precipitation  
Precipitation 0.18 in - - ()
Sea Level Pressure  
Sea Level Pressure 30.12 in    
Wind  
Wind Speed 3 mph (ENE)    
Max Wind Speed 9 mph    
Max Gust Speed -    
Visibility 9 miles    
Events Rain , Thunderstorm    
Averages and records for this station are not official NWS values.
T = Trace of Precipitation, MM = Missing Value Source: NWS Daily Summary

Daily Weather History Graph

Daily Weather History Graph

Search for Another Location

Airport:

Trip Planner

Search our weather history database for the weather conditions in past years. The results will help you decide how hot, cold, wet, or windy it might be!

Date:

Astronomy

May. 10, 2009 Rise Set
Actual Time 6:12 AM CDT 8:05 PM CDT
Civil Twilight 5:44 AM CDT 8:33 PM CDT
Nautical Twilight 5:10 AM CDT 9:07 PM CDT
Astronomical Twilight 4:34 AM CDT 9:43 PM CDT
Moon 10:01 PM CDT (5/10) 6:49 AM CDT (5/10)
Length of Visible Light 14h 49m
Length of Day
13h 53m
Full, 98% of the Moon is Illuminated
May 10
Full
May 17
Last Quarter
May 24
New
May 30
First Quarter
Jun 7
Full

Hourly Weather History & Observations

Time (CDT) Temp. Dew Point Humidity Pressure Visibility Wind Dir Wind Speed Gust Speed Precip Events Conditions
12:53 AM 63.0 °F 60.1 °F 90% 30.09 in 10.0 mi Calm Calm - 0.00 in   Overcast
1:53 AM 63.0 °F 60.1 °F 90% 30.08 in 10.0 mi Calm Calm - 0.00 in   Overcast
2:53 AM 64.9 °F 51.1 °F 61% 30.07 in 10.0 mi NE 3.5 mph - 0.00 in   Overcast
3:53 AM 64.9 °F 50.0 °F 58% 30.06 in 10.0 mi ENE 8.1 mph - N/A   Mostly Cloudy
4:53 AM 64.0 °F 52.0 °F 65% 30.09 in 10.0 mi East 4.6 mph - N/A   Overcast
5:53 AM 63.0 °F 53.1 °F 70% 30.13 in 10.0 mi Calm Calm - N/A   Overcast
6:25 AM 62.6 °F 53.6 °F 72% 30.16 in 10.0 mi WSW 3.5 mph - N/A Thunderstorm Overcast
6:50 AM 60.8 °F 55.4 °F 82% 30.14 in 1.8 mi Calm Calm - 0.09 in Rain Heavy Rain
7:00 AM 59.0 °F 57.2 °F 94% 30.15 in 0.8 mi Calm Calm - 0.06 in Rain Heavy Rain
7:06 AM 59.0 °F 57.2 °F 94% 30.15 in 2.0 mi Calm Calm - 0.07 in Rain Rain
7:14 AM 59.0 °F 57.2 °F 94% 30.16 in 4.0 mi Calm Calm - 0.08 in Rain Light Rain
7:24 AM 60.8 °F 57.2 °F 88% 30.15 in 10.0 mi Calm Calm - 0.08 in Rain Light Rain
7:53 AM 60.1 °F 57.0 °F 90% 30.14 in 10.0 mi Variable 3.5 mph - 0.08 in   Overcast
8:53 AM 61.0 °F 57.0 °F 87% 30.14 in 10.0 mi Variable 3.5 mph - N/A   Overcast
9:38 AM 60.8 °F 57.2 °F 88% 30.17 in 10.0 mi East 3.5 mph - N/A   Overcast
9:53 AM 61.0 °F 57.9 °F 90% 30.16 in 10.0 mi Calm Calm - N/A   Overcast
10:14 AM 62.6 °F 57.2 °F 82% 30.16 in 10.0 mi East 5.8 mph - N/A   Overcast
10:53 AM 61.0 °F 57.0 °F 87% 30.15 in 10.0 mi East 5.8 mph - 0.00 in Rain Light Rain
11:10 AM 60.8 °F 57.2 °F 88% 30.17 in 8.0 mi ENE 6.9 mph - 0.00 in Rain , Thunderstorm Light Thunderstorms and Rain
11:53 AM 61.0 °F 57.0 °F 87% 30.15 in 8.0 mi NE 9.2 mph - 0.03 in Rain Light Rain
12:42 PM 60.8 °F 57.2 °F 88% 30.19 in 9.0 mi NE 8.1 mph - 0.00 in Rain Light Rain
12:53 PM 60.1 °F 55.9 °F 86% 30.17 in 10.0 mi NE 9.2 mph - 0.00 in Rain Light Rain
1:11 PM 60.8 °F 57.2 °F 88% 30.17 in 2.5 mi NE 8.1 mph - 0.04 in Rain Rain
1:30 PM 60.8 °F 55.4 °F 82% 30.15 in 7.0 mi East 5.8 mph - 0.07 in Rain Light Rain
1:53 PM 59.0 °F 55.0 °F 87% 30.13 in 10.0 mi East 6.9 mph - 0.07 in   Overcast
2:53 PM 59.0 °F 55.9 °F 90% 30.11 in 10.0 mi ESE 4.6 mph - N/A   Overcast
3:53 PM 60.1 °F 55.9 °F 86% 30.10 in 10.0 mi Calm Calm - N/A   Overcast
4:11 PM 60.8 °F 55.4 °F 82% 30.09 in 10.0 mi East 5.8 mph - N/A   Overcast
4:35 PM 60.8 °F 55.4 °F 82% 30.08 in 10.0 mi Calm Calm - N/A   Overcast
4:53 PM 60.1 °F 57.0 °F 90% 30.07 in 10.0 mi Calm Calm - N/A   Overcast
5:04 PM 60.8 °F 57.2 °F 88% 30.08 in 10.0 mi Calm Calm - N/A   Overcast
5:53 PM 62.1 °F 57.0 °F 84% 30.06 in 10.0 mi East 5.8 mph - N/A   Overcast
6:02 PM 60.8 °F 55.4 °F 82% 30.06 in 10.0 mi East 6.9 mph - N/A   Overcast
6:53 PM 61.0 °F 55.9 °F 83% 30.06 in 10.0 mi Variable 3.5 mph - N/A   Overcast
7:53 PM 61.0 °F 55.0 °F 81% 30.08 in 10.0 mi East 3.5 mph - N/A   Overcast
8:53 PM 61.0 °F 54.0 °F 78% 30.10 in 10.0 mi NNE 4.6 mph - N/A   Overcast
9:53 PM 61.0 °F 53.1 °F 75% 30.12 in 10.0 mi NNE 8.1 mph - 0.00 in   Overcast
10:53 PM 60.1 °F 51.1 °F 72% 30.13 in 10.0 mi NNE 5.8 mph - N/A   Overcast
11:53 PM 60.1 °F 52.0 °F 75% 30.12 in 10.0 mi Calm Calm - N/A   Overcast